Regional Weather Roundup
Issued by NWS

Home | Current Version | Previous Version | Graphics & Text | Print | Product List | Glossary On
Versions: 1 2 3 4 5 6 7 8 9 10 11 12 13 14 15 16 17 18 19 20 21 22 23 24 25 26 27 28 29 30 31 32 33 34 35 36 37 38 39 40 41 42 43 44 45 46 47 48 49 50
000
ASUS45 KBOI 310510
RWRID

IDAHO REGIONAL WEATHER ROUNDUP
NATIONAL WEATHER SERVICE BOISE ID
1100 PM MDT SUN AUG 30 2015

NOTE: "FAIR" INDICATES FEW OR NO CLOUDS BELOW 12000 FEET
WITH NO SIGNIFICANT WEATHER AND/OR OBSTRUCTIONS TO VISIBILITY

IDZ012-014-310600-
SOUTHWEST IDAHO


CITY           SKY/WX    TMP DP  RH WIND       PRES   REMARKS
BOISE          CLEAR     67  42  40 NW12      29.98R
CALDWELL       CLEAR     61  37  41 NW8       30.02R
MOUNTAIN HOME  CLEAR     64  36  36 W10       29.99R
$$

IDZ016-017-310600-
SOUTHCENTRAL IDAHO


CITY           SKY/WX    TMP DP  RH WIND       PRES   REMARKS
BURLEY         CLEAR     53  42  66 S6        30.02R
JEROME         CLEAR     61  35  37 CALM      30.02R
TWIN FALLS     CLEAR     65  26  23 S10       30.03R
$$

IDZ019>023-310600-
SOUTHEAST IDAHO


CITY           SKY/WX    TMP DP  RH WIND       PRES   REMARKS
IDAHO FALLS    CLEAR     64  29  26 S12       30.03R
POCATELLO      CLEAR     60  31  33 S9        30.04R
REXBURG        CLEAR     61  29  29 S15       30.01R
$$

IDZ006-010-011-018-031-032-310600-
CENTRAL IDAHO MOUNTAINS


CITY           SKY/WX    TMP DP  RH WIND       PRES   REMARKS
MCCALL         MOCLDY    49  39  68 NE3       30.10R
HAILEY         CLEAR     57  30  35 W7        30.09R
STANLEY          N/A     44  30  57 S5        30.15S
SALMON         CLEAR     59  37  44 N5        30.01R
CHALLIS        CLEAR     60  29  30 SW7       30.06S
$$

IDZ002-004-006-007-026-310600-
NORTHERN IDAHO


CITY           SKY/WX    TMP DP  RH WIND       PRES   REMARKS
LEWISTON       CLOUDY    64  45  49 CALM      30.01R
LOWELL           N/A     56  55  97 CALM      30.09R
COEUR D`ALENE  PTCLDY    57  45  62 S10       29.97R
MULLAN PASS    CLOUDY    41  40  96 SW12G25   30.06S
$$


USA.gov is the U.S. government's official web portal to all federal, state and local government web resources and services.